Find Starlink 34398

NORAD ID: 64445 Int'l Des: 2025-130 Owner: SPXS Country: US Constellation: starlink operational
LEOCIRCULAR

当前视图

正在加载3D地球...

About Starlink 34398

Starlink 34398 (NORAD 64445) is a starlink constellation satellite (v2 mini) launched Jun 18, 2025 by SPXS of US. It operates in LEO, CIRCULAR orbit with a mass of 575.00 kg.

即将过境

Passes for default location (London). Set your location on the main map for personalized predictions.

高度历史

Loading altitude history...

两行轨道根数

1 64445U 25130H 26263.96511390 .00002959 00000-0 98687-4 0 9994
2 64445 53.1562 259.8744 0001343 85.4127 274.7029 15.34395217 70620
Epoch: Sep 20, 2026 • Age: 7 hours

当前状态

高度 467.7 km
远地点 / 近地点 N/A
速度 7.64 km/s
星下点 50.41°N, 123.27°W
发射日期 Jun 18, 2025
运行时间 1.2 years
类型 internet

技术详情

分类 Payload
质量 575.00 kg
干质量 530.00 kg
长度 0.30 m
跨度 29.00 m
形状 ? Box + pan
制造商 SPXS
平台类型 Starlink V2MO
阶段状态 In Orbit
所有者/国家 SPXS/US

Most Searched